Hourly Weather Russkoe Bogdashkino

Today, 18 April, Sunday

Time Temperature Precipitation Wind Pressure Humidity
00:00 +7°C° 0 mm 3 mps 758 mmHg 60%
01:00 +5°C° 0 mm 3 mps 758 mmHg 62%
02:00 +5°C° 0 mm 3 mps 758 mmHg 65%
03:00 +4°C° 0 mm 3 mps 758 mmHg 67%
04:00 +4°C° 0 mm 3 mps 758 mmHg 66%
05:00 +4°C° 0 mm 3 mps 758 mmHg 66%
06:00 +5°C° 0 mm 3 mps 758 mmHg 66%
07:00 +6°C° 0 mm 4 mps 758 mmHg 59%
08:00 +8°C° 0 mm 5 mps 758 mmHg 53%
09:00 +10°C° 0 mm 5 mps 758 mmHg 46%
10:00 +12°C° 0 mm 5 mps 757 mmHg 43%
11:00 +13°C° 0 mm 5 mps 757 mmHg 40%
12:00 +14°C° 0 mm 5 mps 757 mmHg 37%
13:00 +14°C° 0 mm 5 mps 757 mmHg 37%
14:00 +14°C° 0 mm 6 mps 757 mmHg 37%
15:00 +14°C° 0 mm 6 mps 757 mmHg 37%
16:00 +13°C° 0 mm 6 mps 758 mmHg 44%
17:00 +11°C° 0 mm 7 mps 758 mmHg 51%
18:00 +9°C° 0 mm 8 mps 758 mmHg 58%
19:00 +8°C° 0 mm 7 mps 759 mmHg 58%
20:00 +6°C° 0 mm 7 mps 759 mmHg 58%
21:00 +5°C° 0 mm 6 mps 759 mmHg 59%
22:00 +4°C° 0 mm 6 mps 760 mmHg 57%
23:00 +4°C° 0 mm 6 mps 760 mmHg 56%

Tomorrow, 19 April, Monday

Time Temperature Precipitation Wind Pressure Humidity
00:00 +3°C° 0 mm 6 mps 760 mmHg 54%
01:00 +2°C° 0 mm 6 mps 760 mmHg 57%
02:00 +2°C° 0 mm 6 mps 760 mmHg 60%
03:00 0°C° 0 mm 7 mps 761 mmHg 63%
04:00 0°C° 0 mm 7 mps 761 mmHg 62%
05:00 -1°C° 0 mm 7 mps 761 mmHg 60%
06:00 -1°C° 0 mm 7 mps 761 mmHg 59%
07:00 0°C° 0 mm 8 mps 761 mmHg 57%
08:00 +1°C° 0 mm 8 mps 762 mmHg 55%
09:00 +2°C° 0 mm 8 mps 762 mmHg 53%
10:00 +2°C° 0 mm 8 mps 762 mmHg 54%
11:00 +2°C° 0 mm 8 mps 762 mmHg 55%
12:00 +4°C° 0 mm 8 mps 762 mmHg 57%
13:00 +4°C° 0 mm 8 mps 762 mmHg 56%
14:00 +5°C° 0 mm 7 mps 762 mmHg 55%
15:00 +5°C° 0 mm 7 mps 762 mmHg 54%
16:00 +5°C° 0 mm 6 mps 762 mmHg 53%
17:00 +5°C° 0 mm 6 mps 762 mmHg 52%
18:00 +6°C° 0 mm 5 mps 763 mmHg 51%
19:00 +4°C° 0 mm 6 mps 763 mmHg 51%
20:00 +4°C° 0 mm 6 mps 763 mmHg 50%
21:00 +3°C° 0 mm 6 mps 763 mmHg 50%
22:00 +2°C° 0 mm 6 mps 764 mmHg 51%
23:00 +2°C° 0 mm 5 mps 764 mmHg 51%

Day after tomorrow, 20 April, Tuesday

Time Temperature Precipitation Wind Pressure Humidity
00:00 +1°C° 0 mm 5 mps 764 mmHg 52%
01:00 0°C° 0 mm 5 mps 765 mmHg 53%
02:00 0°C° 0 mm 5 mps 765 mmHg 54%
03:00 -1°C° 0 mm 5 mps 765 mmHg 55%
04:00 -1°C° 0 mm 5 mps 766 mmHg 53%
05:00 -1°C° 0 mm 5 mps 766 mmHg 51%
06:00 -1°C° 0 mm 5 mps 766 mmHg 49%
07:00 -1°C° 0 mm 6 mps 766 mmHg 43%
08:00 +2°C° 0 mm 6 mps 767 mmHg 37%
09:00 +3°C° 0 mm 6 mps 767 mmHg 31%
10:00 +4°C° 0 mm 6 mps 767 mmHg 30%
11:00 +5°C° 0 mm 6 mps 766 mmHg 28%
12:00 +7°C° 0 mm 6 mps 766 mmHg 26%
13:00 +8°C° 0 mm 6 mps 766 mmHg 26%
14:00 +8°C° 0 mm 6 mps 766 mmHg 25%
15:00 +9°C° 0 mm 6 mps 765 mmHg 25%
16:00 +8°C° 0 mm 6 mps 765 mmHg 28%
17:00 +7°C° 0 mm 5 mps 765 mmHg 30%
18:00 +7°C° 0 mm 5 mps 765 mmHg 33%
19:00 +6°C° 0 mm 5 mps 765 mmHg 37%
20:00 +5°C° 0 mm 4 mps 765 mmHg 40%
21:00 +4°C° 0 mm 4 mps 765 mmHg 43%
22:00 +3°C° 0 mm 4 mps 765 mmHg 44%
23:00 +3°C° 0 mm 4 mps 765 mmHg 45%

21 April, Wednesday

Time Temperature Precipitation Wind Pressure Humidity
00:00 +2°C° 0 mm 5 mps 765 mmHg 46%
01:00 +1°C° 0 mm 5 mps 765 mmHg 47%
02:00 +1°C° 0 mm 5 mps 765 mmHg 48%
03:00 0°C° 0 mm 5 mps 765 mmHg 50%
04:00 0°C° 0 mm 5 mps 765 mmHg 49%
05:00 -1°C° 0 mm 6 mps 765 mmHg 48%
06:00 -1°C° 0 mm 6 mps 765 mmHg 47%
07:00 +2°C° 0 mm 7 mps 765 mmHg 42%
08:00 +2°C° 0 mm 8 mps 765 mmHg 37%
09:00 +3°C° 0 mm 9 mps 764 mmHg 32%
10:00 +6°C° 0 mm 9 mps 764 mmHg 30%
11:00 +7°C° 0 mm 9 mps 764 mmHg 28%
12:00 +8°C° 0 mm 9 mps 763 mmHg 27%
13:00 +9°C° 0 mm 8 mps 763 mmHg 28%
14:00 +9°C° 0 mm 8 mps 763 mmHg 29%
15:00 +10°C° 0 mm 7 mps 763 mmHg 31%
16:00 +9°C° 0 mm 7 mps 763 mmHg 33%
17:00 +8°C° 0 mm 7 mps 763 mmHg 35%
18:00 +8°C° 0 mm 6 mps 763 mmHg 37%
19:00 +8°C° 0 mm 6 mps 763 mmHg 39%
20:00 +7°C° 0 mm 6 mps 763 mmHg 42%
21:00 +7°C° 0 mm 5 mps 763 mmHg 44%
22:00 +5°C° 0 mm 6 mps 763 mmHg 51%
23:00 +5°C° 0 mm 6 mps 763 mmHg 58%

22 April, Thursday

Time Temperature Precipitation Wind Pressure Humidity
00:00 +4°C° 0 mm 6 mps 764 mmHg 65%
01:00 +4°C° 0.3 mm 6 mps 764 mmHg 72%
02:00 +3°C° 0.3 mm 6 mps 764 mmHg 80%
03:00 +3°C° 0.3 mm 6 mps 764 mmHg 88%
04:00 +3°C° 0.1 mm 6 mps 764 mmHg 87%
05:00 +3°C° 0.1 mm 6 mps 764 mmHg 86%
06:00 +3°C° 0.1 mm 6 mps 764 mmHg 85%
07:00 +3°C° 0.4 mm 6 mps 764 mmHg 83%
08:00 +3°C° 0.4 mm 6 mps 765 mmHg 82%
09:00 +3°C° 0.4 mm 6 mps 765 mmHg 80%
10:00 +3°C° 0.4 mm 6 mps 765 mmHg 85%
11:00 +3°C° 0.4 mm 5 mps 765 mmHg 90%
12:00 +3°C° 0.4 mm 5 mps 765 mmHg 95%
13:00 +3°C° 0.1 mm 5 mps 765 mmHg 93%
14:00 +3°C° 0.1 mm 5 mps 765 mmHg 92%
15:00 +3°C° 0.1 mm 5 mps 765 mmHg 90%
16:00 +3°C° 0 mm 5 mps 765 mmHg 89%
17:00 +3°C° 0 mm 5 mps 766 mmHg 88%
18:00 +4°C° 0 mm 4 mps 766 mmHg 87%
19:00 +4°C° 0 mm 4 mps 766 mmHg 87%
20:00 +4°C° 0 mm 4 mps 766 mmHg 87%
21:00 +4°C° 0 mm 4 mps 766 mmHg 88%
22:00 +4°C° 0.2 mm 4 mps 766 mmHg 90%
23:00 +4°C° 0.2 mm 4 mps 765 mmHg 92%

23 April, Friday

Time Temperature Precipitation Wind Pressure Humidity
00:00 +4°C° 0.2 mm 4 mps 765 mmHg 94%
01:00 +4°C° 0.4 mm 3 mps 765 mmHg 95%
02:00 +4°C° 0.4 mm 3 mps 765 mmHg 95%
03:00 +5°C° 0.4 mm 2 mps 765 mmHg 96%
04:00 +5°C° 0.2 mm 2 mps 765 mmHg 95%
05:00 +5°C° 0.2 mm 2 mps 765 mmHg 95%
06:00 +5°C° 0.2 mm 2 mps 765 mmHg 95%
07:00 +5°C° 0.1 mm 2 mps 765 mmHg 94%
08:00 +6°C° 0.1 mm 2 mps 765 mmHg 94%
09:00 +6°C° 0.1 mm 2 mps 765 mmHg 93%
10:00 +6°C° 0 mm 2 mps 765 mmHg 91%
11:00 +6°C° 0 mm 2 mps 765 mmHg 89%
12:00 +7°C° 0 mm 1 mps 765 mmHg 87%
13:00 +8°C° 0 mm 1 mps 765 mmHg 87%
14:00 +8°C° 0 mm 1 mps 765 mmHg 87%
15:00 +8°C° 0 mm 1 mps 765 mmHg 86%
16:00 +7°C° 0.1 mm 1 mps 765 mmHg 88%
17:00 +7°C° 0.1 mm 1 mps 765 mmHg 90%
18:00 +7°C° 0.1 mm 1 mps 765 mmHg 92%
19:00 +7°C° 0 mm 1 mps 765 mmHg 92%
20:00 +7°C° 0 mm 1 mps 765 mmHg 92%
21:00 +7°C° 0 mm 1 mps 765 mmHg 92%
22:00 +7°C° 0 mm 1 mps 765 mmHg 93%
23:00 +7°C° 0 mm 1 mps 764 mmHg 93%
Show more